EHI
0 0 0 0 0 0 0 0 0 0 0 0 0 0 0 0 0 0 0 0 0 0 0 0 0 0 0 0 0 0 0 0 0 0 0 0 0 0 0 0 0 0 0
0 0 0 0 0 0 0 0 0 0 0 0 0 0 0 0 0 0 0 0 0 0 0 0 0 0 0 0 0 0 0 0 0 0 0 0 0 0 0 0 0 0 0
0 0 0 0 0 0 0 0 0 0 0 0 0 0 0 0 0 0 0 0 0 0 0 0 0 0 0 0 0 0 0 0 0 0 0 0 0 0 0 0 0 0 0
0 0 0 0 0 0 0 0 0 0 0 0 0 0 1 1 1 0 0 0 0 0 0 0 0 0 0 0 0 0 0 0 0 1 1 0 0 0 0 0 0 0 0
0 0 0 0 0 0 0 0 0 0 0 0 0 0 1 2 1 0 0 0 0 0 0 0 0 0 0 0 0 0 0 0 0 1 1 0 0 0 0 0 0 0 0
0 0 0 0 0 0 0 0 0 0 0 0 0 0 1 1 1 0 0 0 0 0 0 0 0 0 0 0 0 0 0 0 0 1 1 0 0 0 0 0 0 0 0
0 0 0 0 0 0 0 0 0 0 0 0 0 0 0 0 0 0 0 0 0 0 0 0 0 0 0 0 0 0 0 0 0 0 0 0 0 0 0 0 0 0 0
0 0 0 0 0 0 0 0 0 0 0 0 0 0 0 0 0 0 0 0 0 0 0 0 0 0 0 0 0 0 0 1 0 0 0 0 0 0 0 0 0 0 0
0 0 0 0 0 0 0 0 0 0 0 0 0 0 0 0 0 0 0 0 0 0 0 0 0 0 0 0 0 0 0 0 0 0 0 0 0 0 0 0 0 0 0
0 0 0 0 0 0 0 0 0 0 0 0 0 0 0 0 0 0 0 0 0 0 0 0 0 0 0 0 0 0 0 0 0 0 0 0 0 0 0 0 0 0 0
0 0 0 0 0 0 0 0 0 0 0 0 0 0 0 0 0 0 0 0 0 0 0 0 0 0 0 0 0 0 0 0 0 0 0 0 0 0 0 0 0 0 0
0 0 0 0 0 0 0 0 0 0 0 0 0 0 0 0 0 0 0 0 0 0 0 0 0 0 0 0 0 0 0 0 0 0 0 0 0 0 0 0 0 0 0
0 0 0 0 0 0 0 0 0 0 0 0 0 0 0 0 0 0 0 0 0 0 0 0 0 0 0 0 0 0 0 0 0 0 0 0 0 0 0 0 0 0 0
0 0 0 0 0 0 0 0 0 0 0 0 0 0 0 0 0 0 0 0 0 0 0 0 0 0 0 0 0 0 0 0 0 0 0 0 0 0 0 0 0 0 0
0 0 0 0 0 0 0 0 0 0 0 0 0 0 0 0 0 0 0 0 0 0 0 0 0 0 0 0 0 0 0 0 0 0 0 0 0 0 0 0 0 0 0
0 0 0 0 0 0 0 0 0 0 0 0 0 0 0 0 0 0 0 0 0 0 0 0 0 0 0 0 0 0 0 0 0 0 0 0 0 0 0 0 0 0 0
0 0 0 0 0 0 0 0 0 0 0 0 0 0 0 0 0 0 0 0 0 0 0 0 0 0 0 0 0 0 0 0 0 0 0 0 0 0 0 0 0 0 0
0 0 0 0 0 0 0 0 0 0 0 0 0 0 0 0 0 0 0 0 0 0 0 0 0 0 0 0 0 0 0 0 0 0 0 0 0 0 0 0 0 0 0
0 0 0 0 0 0 0 0 0 0 0 0 0 0 0 0 0 0 0 0 0 0 0 0 0 0 0 0 0 0 0 0 0 0 0 0 0 0 0 0 0 0 0
0 0 0 0 0 0 0 0 0 0 0 0 0 0 0 0 0 0 0 0 0 0 0 0 0 0 0 0 0 0 0 0 0 0 0 0 0 0 0 0 0 0 0
0 0 0 0 0 0 0 0 0 0 0 0 0 0 0 0 0 0 0 0 0 0 0 0 0 0 0 0 0 0 0 0 0 0 0 0 0 0 0 0 0 0 0
0 0 0 0 0 0 0 0 0 1 1 0 0 0 0 0 0 0 0 0 0 0 0 0 0 0 0 0 0 0 0 0 0 0 0 0 0 0 0 0 0 0 0
0 1 1 1 1 1 0 0 0 1 2 1 0 0 0 0 0 0 0 0 0 0 0 0 0 0 0 0 0 0 0 0 0 0 0 0 0 0 0 0 0 0 0
1 2 2 2 2 2 1 0 0 1 2 2 1 0 0 0 0 0 0 0 0 0 0 0 0 0 0 0 0 0 0 0 0 0 0 0 0 0 0 0 0 0 0
3 3 3 3 3 2 1 0 0 1 2 2 1 0 0 0 0 0 0 0 0 0 0 0 0 0 0 0 0 0 0 0 0 0 0 0 0 0 0 0 0 0 0
3 3 3 3 2 2 1 0 0 1 2 2 1 0 0 0 0 0 0 0 0 0 0 0 0 0 0 0 0 0 0 0 0 0 0 0 0 0 0 0 0 0 0
Wind_Speed
3 3 3 3 4 4 4 4 4 6 6 6 6 6 6 6 5 5 5 9 8 8 8 9 9 9 9 9 9 9 9 8 8 7 7 6 6 5 5 5 4 4 4
3 3 4 4 4 3 3 3 4 4 4 5 5 6 6 5 6 6 5 7 9 9 9 9 9 8 9 9 9 9 9 9 8 8 7 7 6 6 5 5 4 4 4
3 3 3 3 3 3 3 3 5 4 4 4 5 5 5 5 5 6 5 4 6 9 10 9 8 8 9 9 9 9 9 9 8 7 7 7 6 6 5 5 5 4 4
3 3 3 3 3 3 2 3 3 3 3 3 4 4 4 4 5 5 5 5 5 4 7 9 8 8 8 8 8 8 8 8 8 8 7 7 6 6 5 5 5 4 4
3 3 2 2 3 2 2 2 2 2 3 3 3 3 3 4 4 4 5 6 5 5 5 7 8 8 8 9 8 8 8 7 7 7 6 6 6 5 5 5 5 4 5
2 2 2 2 2 2 2 2 3 2 2 2 2 3 3 3 3 4 4 4 4 4 4 4 4 6 8 8 8 8 7 7 7 6 6 5 5 5 5 5 5 6 6
2 2 1 2 1 2 2 2 2 3 2 1 2 3 3 3 3 3 3 3 3 3 3 4 3 3 3 6 7 7 7 6 6 6 6 5 5 4 4 4 5 5 5
1 1 1 1 1 1 1 1 1 1 2 0 1 1 2 3 2 2 2 2 2 2 3 3 3 3 3 2 6 7 7 7 6 6 5 5 4 3 3 3 3 4 4
1 1 1 1 1 1 1 1 1 1 0 1 1 2 1 1 1 2 2 1 1 2 2 2 3 3 3 2 3 5 7 6 6 5 5 5 4 3 3 3 3 3 3
2 1 1 1 1 1 1 1 1 1 1 1 1 1 2 2 1 1 2 1 1 1 1 1 1 2 2 2 3 6 6 6 5 5 5 4 4 4 3 4 3 3 3
2 2 1 1 2 1 2 1 1 2 2 2 1 1 1 1 2 1 1 1 1 1 1 1 1 1 2 2 2 4 4 5 5 5 5 4 3 3 3 3 3 2 2
2 2 2 2 2 2 2 2 2 2 2 2 2 2 2 1 1 1 1 1 1 1 1 1 0 0 1 1 2 4 3 3 4 4 4 4 3 2 2 2 2 2 1
2 3 2 2 2 2 2 2 2 3 3 3 3 2 2 2 2 2 2 1 1 1 1 2 1 1 1 0 1 2 2 1 2 3 3 3 3 3 2 2 2 1 1
2 3 3 3 3 3 2 2 2 2 2 3 3 3 3 2 2 2 2 2 2 2 2 2 2 1 1 1 2 2 2 2 2 2 2 2 2 2 2 2 2 2 2
2 3 3 3 3 3 3 3 2 3 3 3 3 3 3 2 3 3 3 3 3 3 2 2 2 2 1 1 1 2 1 3 1 2 1 1 1 2 2 2 2 2 2
3 3 4 3 3 3 4 3 3 3 3 2 2 3 3 3 2 2 3 3 3 3 2 1 1 2 2 1 1 2 0 3 1 1 1 1 1 1 1 1 1 1 2
3 4 4 4 4 4 4 4 4 4 4 4 4 4 4 3 3 3 3 3 3 3 3 1 1 1 3 3 2 2 1 2 2 1 0 1 1 1 1 1 1 1 1
4 4 4 4 4 4 4 5 5 4 5 4 4 4 4 3 4 3 3 4 3 3 3 3 2 2 2 2 2 2 1 1 1 2 1 1 1 1 1 1 1 2 2
3 4 4 4 4 4 4 5 5 5 5 5 5 5 5 4 4 3 4 4 3 3 3 3 2 1 2 2 2 2 2 2 2 2 3 3 3 2 1 2 2 2 1
4 4 4 4 4 4 4 4 5 5 5 5 5 5 5 5 5 4 4 4 4 4 3 3 3 2 2 2 2 2 2 2 2 1 1 2 3 4 3 2 2 1 1
4 4 4 3 4 4 4 4 4 4 5 5 5 5 4 3 3 3 3 4 4 4 4 3 3 3 2 2 3 2 2 2 2 2 2 2 2 2 3 4 3 2 1
3 4 4 3 4 3 2 3 4 4 4 4 4 4 4 5 4 4 4 4 4 5 5 4 3 4 4 3 2 2 3 3 2 1 3 2 2 2 2 1 1 2 2
3 4 4 4 4 3 3 4 4 5 4 4 4 4 3 3 5 5 6 6 5 5 5 5 4 4 4 3 3 4 3 3 3 0 2 3 2 2 2 0 2 1 1
3 4 4 4 4 3 3 4 4 5 5 4 4 4 4 4 3 4 4 5 5 5 5 6 5 4 3 2 3 3 3 3 3 1 2 3 2 2 2 1 3 2 2
3 3 3 4 4 4 4 4 4 5 4 5 4 4 4 4 2 4 5 5 5 4 3 2 1 0 1 0 2 3 3 4 4 2 2 3 2 3 3 3 3 4 3
3 3 3 4 4 4 3 4 5 4 4 4 4 4 3 3 2 4 6 5 6 4 4 4 4 4 4 4 5 5 4 4 3 3 2 3 3 2 3 2 2 2 3
Wind_Direction
75 77 79 73 67 66 68 60 61 65 63 60 59 57 57 57 66 75 81 73 69 71 76 78 78 76 74 75 75 75 75 75 78 81 84 84 79 79 78 72 73 70 67
77 73 76 73 66 63 64 69 74 68 63 60 59 58 55 56 63 74 77 83 70 67 69 72 73 74 73 73 73 72 73 75 74 79 82 83 80 81 80 76 77 77 70
85 81 75 76 75 75 75 72 77 73 72 73 68 60 58 55 63 68 70 68 80 76 66 65 67 68 67 68 70 68 68 68 70 74 77 75 75 75 74 74 73 74 73
84 79 77 77 75 74 73 79 80 81 76 70 69 65 67 64 62 63 71 72 65 70 76 65 63 64 63 63 66 66 66 66 66 67 68 68 68 72 74 74 72 71 75
94 87 74 76 79 79 76 78 73 75 80 74 78 75 69 70 65 62 64 63 67 68 75 82 74 62 58 57 57 58 59 62 62 62 62 62 62 68 75 75 74 69 71
93 91 97 90 85 84 77 79 88 81 80 92 96 89 80 85 78 61 58 58 56 62 67 74 83 82 65 54 50 51 51 54 55 56 58 61 63 67 74 75 74 71 70
107 104 108 99 90 88 83 89 93 107 98 101 137 126 117 95 85 82 66 58 61 54 63 74 67 66 88 77 51 45 45 50 54 52 51 56 64 70 75 78 79 77 78
127 121 158 141 126 105 110 98 88 94 101 95 291 183 152 147 119 93 91 74 73 75 57 61 75 72 59 72 66 45 39 44 50 49 51 53 59 70 75 79 82 88 88
180 192 220 190 176 194 175 175 166 199 180 149 337 321 295 103 129 131 102 82 72 80 77 63 64 69 70 66 73 61 36 36 42 44 46 49 53 60 63 73 77 88 85
209 217 214 229 219 225 211 224 221 240 249 212 165 309 341 9 278 148 144 119 99 104 82 86 76 71 72 70 69 53 38 29 31 36 39 39 48 55 55 57 64 79 84
206 206 214 225 231 235 238 241 242 247 254 259 238 205 184 200 271 280 178 153 159 154 128 96 88 62 66 64 54 59 42 31 28 26 26 28 37 53 53 60 62 62 65
200 207 217 220 229 235 236 238 238 241 256 263 256 240 239 239 243 254 249 204 197 152 163 145 153 75 84 80 58 57 45 34 27 21 17 14 19 29 37 50 60 55 47
207 207 218 223 221 228 233 235 239 242 241 247 257 260 258 260 266 264 257 248 244 194 187 182 186 190 181 150 95 75 100 54 19 10 10 9 9 8 12 16 19 24 31
223 213 218 220 219 221 224 229 246 239 246 245 251 256 250 249 252 248 253 250 248 220 206 190 181 197 197 210 70 242 118 100 33 13 8 13 9 351 348 343 343 348 356
226 216 213 213 214 218 221 218 236 234 239 246 251 251 255 247 243 250 244 245 261 259 230 195 197 193 199 203 127 229 180 96 55 9 5 11 9 356 346 349 339 344 344
211 213 214 210 211 215 218 218 234 235 231 232 248 254 258 258 247 242 244 242 251 266 263 185 207 181 188 208 188 250 99 127 142 3 354 318 319 326 326 336 328 334 333
220 220 222 221 218 219 221 218 228 224 233 230 223 232 239 247 240 235 232 231 235 241 244 227 210 187 195 212 188 225 218 224 153 137 342 277 259 277 272 289 318 315 314
225 228 227 226 228 229 230 228 229 229 234 238 236 235 239 233 235 234 230 229 229 233 237 236 208 204 217 219 213 216 214 232 235 132 204 250 249 257 255 263 281 293 300
221 223 225 225 227 232 232 233 234 234 237 241 243 244 243 237 232 224 226 228 225 221 225 228 232 219 228 217 216 216 223 236 245 179 199 219 223 236 245 256 263 274 289
222 221 222 225 228 229 230 233 234 237 237 241 245 249 249 244 239 227 224 225 220 215 212 213 220 219 217 218 221 223 223 214 239 240 227 226 206 212 216 231 237 250 264
227 229 226 228 232 235 235 236 235 238 240 241 242 243 248 254 281 255 242 228 211 212 210 211 213 216 217 218 225 231 241 239 231 249 252 235 224 224 204 202 212 230 249
232 234 234 238 240 240 227 245 248 237 239 241 246 249 240 224 226 226 244 251 239 225 219 216 223 222 229 225 226 236 238 243 244 219 260 256 245 252 257 246 113 171 225
230 237 240 241 243 240 207 223 245 249 246 246 248 249 241 233 235 218 205 212 224 238 246 247 235 238 241 229 223 230 235 251 268 285 265 260 244 252 245 155 113 166 229
234 238 241 239 244 242 209 218 232 242 249 247 246 250 244 238 234 233 219 212 214 213 221 235 241 242 252 249 238 247 251 243 253 234 248 266 254 261 253 226 154 190 229
245 244 247 247 243 237 215 220 226 239 242 244 247 252 250 243 215 225 226 219 216 208 186 197 310 316 54 47 252 234 226 232 240 222 222 260 264 264 247 234 180 183 205
249 251 247 248 247 252 217 212 225 238 241 242 243 241 242 252 216 213 228 225 221 213 200 188 189 194 204 190 210 232 234 245 253 241 208 244 255 257 252 230 230 211 203